Location: Mexico
(19.4000°N, 99.1500°W)
Time: 11:22:51
(UTC-06:00)

ISS - Pass Details

Date: 17 January 2020
Orbit: 415 x 422 km, 51.6° (Epoch: 23 January)

Event Time Altitude Azimuth Distance (km) Brightness Sun altitude
Rises 19:47:34 0° 250° (WSW) 2,357 1.6 -20.4°
Reaches altitude 10° 19:50:12 10° 272° (W) 1,494 0.1 -21.0°
Maximum altitude 19:52:27 17° 314° (NW) 1,153 -1.2 -21.5°
Enters shadow 19:53:33 15° 338° (NNW) 1,246 -1.3 -21.8°
